Regional Weather Roundup
Issued by NWS

Home | Current Version | Previous Version | Graphics & Text | Print | Product List | Glossary On
Versions: 1 2 3 4 5 6 7 8 9 10 11 12 13 14 15 16 17 18 19 20 21 22 23 24 25 26 27 28 29 30 31 32 33 34 35 36 37 38 39 40 41 42 43 44 45 46 47 48 49 50
000
ASUS43 KIND 090709
RWRIN

WEATHER ROUNDUP FOR INDIANA
NATIONAL WEATHER SERVICE INDIANAPOLIS IN
200 AM EST FRI DEC 09 2016

NOTE: "FAIR" INDICATES FEW OR NO CLOUDS BELOW 12,000 FEET WITH NO
SIGNIFICANT WEATHER AND/OR OBSTRUCTIONS TO VISIBILITY.

* - STATION DOES NOT REPORT WEATHER SUCH AS PRECIPITATION OR FOG.

+ - STATION NOT QUALITY CONTROLLED BY THE NATIONAL WEATHER SERVICE.
    USE DATA WITH CAUTION...ESPECIALLY DEWPOINT AND RELATIVE
    HUMIDITY OBSERVATIONS.

INZ001>003-010>013-019-020-090800-
NORTHWEST INDIANA

CITY           SKY/WX    TMP DP  RH WIND       PRES   REMARKS
GARY /AIRPORT/ MOCLDY    24  18  78 W10G17    30.43S WCI  14
KNOX *+        CLOUDY    23   3  42 W15G21    30.42R WCI  10
LA PORTE +     FLURRIES  23  17  78 W12G17    30.39S WCI  11
MICHIGAN CITY+ FLURRIES  28  21  74 W7        30.40S WCI  21
MONTICELLO +   FLURRIES  22  14  70 W9        30.45S WCI  12
RENSSELAER +     N/A     23  19  86 W8        30.45R WCI  14
VALPARAISO     CLOUDY    23  16  74 MISG      30.42S

$$

LMZ046-743>745-090800-
SOUTHERN LAKE MICHIGAN

STATION/POSITION TIME  TEMP    WIND        PRES    WAVE
                       AIR SEA DIR/SP/G            HT
                 (UTC) (F)     (DEG/KT/KT) (MB)    (FT)

$$

INZ004-005-014>016-021>024-090800-
NORTH CENTRAL INDIANA

CITY           SKY/WX    TMP DP  RH WIND       PRES   REMARKS
GOSHEN         CLEAR     21  15  78 W15       30.35S WCI   8
LOGANSPORT +   LGT SNOW  23  18  80 W10       30.45S WCI  12
PERU/GRISSOM   FLURRIES  22  18  86 W8        30.41F WCI  12
ROCHESTER +    FLURRIES  27  21  80 W12       30.41S WCI  16
SOUTH BEND     LGT SNOW  21  19  92 SW15      30.37S VSB 3/4 WCI   8
WARSAW +       CLEAR     21  14  73 W12       30.37S WCI   9

$$

INZ006>009-017-018-025>027-090800-
NORTHEAST INDIANA

CITY           SKY/WX    TMP DP  RH WIND       PRES   REMARKS
ANGOLA *+      CLOUDY    21  18  86 W12       30.31R WCI   9
AUBURN +       CLEAR     21  16  79 W9        30.35S WCI  11
FORT WAYNE     PTCLDY    21  14  74 W16       30.37S WCI   7
HUNTINGTON +   CLEAR     20  15  81 W13G20    30.38S WCI   7
KENDALLVILLE + CLEAR     20  16  85 W13G18    30.33S WCI   7

$$

INZ028-029-035-036-043>045-051>053-090800-
WEST CENTRAL INDIANA

CITY           SKY/WX    TMP DP  RH WIND       PRES   REMARKS
CRAWFORDSVL +  LGT SNOW  19  17  95 W7        30.48S WCI   9
GREENCASTLE +  LGT SNOW  19  19 100 W3        30.49S
LAFAYETTE      LGT SNOW  21  18  88 W9        30.47S FOG     WCI  11
TERRE HAUTE    FLURRIES  21  15  78 W8        30.52S WCI  11

$$

INZ030>032-037>040-046>048-054>057-064-065-090800-
CENTRAL INDIANA

CITY           SKY/WX    TMP DP  RH WIND       PRES   REMARKS
CP ATTERBURY + FLURRIES  21  18  86 W6        30.50S WCI  14
FISHERS *+     CLOUDY    19  19 100 W3        30.46S
FRANKFORT +    FLURRIES  24  20  85 W12       30.46S WCI  13
GREENWOOD *+   CLOUDY    21  17  83 W8        30.47S WCI  12
INDIANAPOLIS   FLURRIES  20  16  84 W10       30.46S WCI   9
-EAGLE CREEK   FLURRIES  21  16  81 W10       30.46S WCI  10
KOKOMO +       FLURRIES  21  18  88 W14       30.44S WCI   8
MARION +       LGT SNOW  20  18  89 W12       30.42F WCI   8
MT COMFORT *+  CLOUDY    19  18  93 W7        30.45S WCI  10
SHELBYVILLE    FLURRIES  22  15  75 W10       30.46S WCI  11
ZIONSVILLE +   LGT SNOW  20  16  86 W12       30.45F WCI   7

$$

INZ033-034-041-042-049-050-058-059-090800-
EAST CENTRAL INDIANA

CITY           SKY/WX    TMP DP  RH WIND       PRES   REMARKS
MUNCIE         LGT SNOW  21  17  84 W8        30.43S FOG     WCI  11

$$

INZ060-061-067>069-081>083-085>088-090800-
SOUTHWEST INDIANA

CITY           SKY/WX    TMP DP  RH WIND       PRES   REMARKS
EVANSVILLE     CLOUDY    26  13  57 NW8       30.56S WCI  18
HUNTINGBURG *+ CLOUDY    23  18  80 NW7       30.54S WCI  15
WASHINGTON +   CLOUDY    24  15  69 NW17      30.54S WCI  10

$$

INZ062-063-066-070>080-084-089>092-090800-
SOUTH CENTRAL AND SOUTHEAST INDIANA

CITY           SKY/WX    TMP DP  RH WIND       PRES   REMARKS
BLOOMINGTON    CLOUDY    20  12  71 W7        30.49S WCI  11
MADISON *+     CLOUDY    23  14  68 W8        30.50S WCI  14
NORTH VERNON + FLURRIES  23  19  86 W10       30.50R WCI  12
SEYMOUR +      CLOUDY    23  12  63 NW16      30.51S WCI  10

$$




USA.gov is the U.S. government's official web portal to all federal, state and local government web resources and services.